Theta_e
313 313 313 313 313 313 313 313 313 314 314 314 314 314 314 314 314 314 314 314 314 315 314 314 314 314 314 313 313 314 312 309 306 304 302 306 309 314 319 317 321 320 321 307 305 304 303 304 304 304 306 306 304 305 306 307 302 302 299 296 293 294 293 297 296 297 298 298 300 300 298 299 299 315 325 329 326 326 326 325 328 331 332 336 338 339 337 335
313 313 312 312 312 312 313 313 313 313 314 313 313 313 314 314 314 314 314 315 314 314 314 314 314 314 313 312 313 314 310 307 304 303 303 312 318 319 323 321 327 322 320 305 303 302 303 302 303 304 304 303 302 303 304 304 303 300 296 295 294 294 297 300 299 298 297 299 299 299 298 298 299 301 321 318 320 322 321 324 325 326 331 335 336 335 334 333
312 312 312 312 312 312 312 312 313 313 313 313 313 313 313 314 314 314 314 314 315 315 314 314 313 313 313 313 313 313 309 304 303 304 313 321 320 323 321 329 327 324 310 304 305 305 305 304 303 304 302 302 302 302 302 300 302 299 298 294 295 297 298 298 299 299 299 299 300 300 298 298 300 300 309 312 320 320 320 320 321 324 326 330 332 334 333 332
312 312 312 312 312 312 312 312 312 313 313 313 313 313 314 314 314 314 314 314 314 314 314 314 314 313 313 313 313 310 307 302 303 309 315 322 323 322 322 329 326 318 309 307 305 303 302 303 302 304 301 302 300 299 301 300 301 299 297 295 297 297 297 300 299 300 299 298 299 299 299 300 300 299 305 315 317 319 320 325 324 324 326 329 332 332 332 331
312 312 312 312 313 312 312 312 312 313 313 313 313 313 314 314 313 314 314 314 313 313 313 313 313 313 313 314 312 310 302 300 303 310 315 326 326 321 323 329 324 314 312 302 302 301 302 302 302 300 302 299 298 300 300 300 300 298 298 299 298 295 297 301 301 299 298 298 298 297 298 299 300 305 317 318 310 306 315 318 324 329 330 330 330 332 332 331
312 312 312 313 312 312 312 312 312 312 312 312 313 313 313 313 313 313 314 314 313 313 313 312 312 312 313 313 309 306 302 294 306 309 329 330 326 324 325 330 325 305 303 302 301 300 301 300 302 301 299 299 298 298 299 299 299 296 297 296 297 298 298 300 299 298 297 298 298 297 299 299 299 300 304 314 307 307 319 320 323 331 332 334 334 333 331 330
311 312 312 312 312 311 311 312 311 312 312 312 312 313 313 313 313 313 313 313 314 313 313 312 312 312 313 309 307 305 297 297 306 310 330 331 326 326 326 327 321 304 303 301 301 300 299 299 301 298 298 297 296 298 299 298 297 298 297 296 299 296 297 299 300 298 297 297 298 299 298 298 299 297 300 305 310 327 326 323 329 332 333 334 332 333 331 331
311 312 311 311 311 311 311 312 312 311 312 312 312 313 312 313 313 313 313 313 313 313 313 313 312 312 311 306 303 301 298 299 306 312 336 330 325 326 327 318 309 303 303 302 300 299 299 300 300 298 299 297 297 298 298 298 296 297 296 297 298 296 299 299 298 297 297 297 298 297 297 299 299 299 307 308 323 327 328 330 331 331 332 333 333 332 332 332
311 311 311 311 311 311 311 311 311 311 311 312 312 312 312 312 313 312 312 312 312 312 312 313 312 312 310 304 299 292 293 303 310 321 330 325 324 319 315 310 307 305 302 299 300 301 301 298 300 301 297 297 297 299 295 297 295 297 298 297 296 297 299 297 297 298 297 297 296 297 297 298 297 303 304 312 325 327 329 328 328 330 330 331 332 332 332 331
311 311 311 311 311 311 311 311 311 311 311 311 311 311 312 312 312 312 312 311 311 312 312 313 313 311 308 305 299 291 298 306 318 321 324 322 315 312 309 310 308 306 306 300 300 301 300 300 303 303 301 298 297 297 294 296 296 297 297 297 298 298 296 299 297 299 295 297 297 298 298 297 299 304 299 321 326 327 327 326 327 328 329 331 332 332 330 328
311 311 311 311 311 311 311 311 311 311 311 311 311 311 312 312 311 311 311 311 312 312 312 311 313 310 305 303 295 290 301 314 316 320 320 318 313 309 308 307 308 308 307 300 303 302 301 301 303 303 302 299 297 296 295 297 297 296 297 296 296 296 296 297 295 296 296 299 297 299 296 296 302 303 300 322 326 327 325 325 326 327 328 329 330 328 328 327
311 311 311 311 311 311 311 311 311 311 311 311 311 311 311 311 311 311 312 312 312 312 312 311 313 309 305 301 298 296 306 314 315 316 317 315 311 309 307 309 309 307 307 303 303 300 302 304 303 303 297 301 297 296 297 297 297 297 297 295 296 295 297 297 297 296 296 298 296 299 297 295 298 300 307 324 326 326 324 323 325 326 327 329 328 327 326 327
310 311 311 310 310 310 311 311 311 311 311 311 310 311 311 311 311 311 311 312 312 312 310 310 313 309 304 297 301 307 308 313 312 310 309 306 304 303 308 307 307 306 308 306 302 301 304 305 305 302 301 301 298 295 297 298 296 296 296 295 295 296 295 297 295 294 295 298 295 298 292 295 297 300 320 325 325 325 323 323 324 325 327 326 326 326 326 325
310 310 310 311 310 310 310 310 311 311 311 311 310 310 310 310 310 310 311 310 312 312 313 313 310 305 301 297 303 305 308 310 312 309 309 308 305 302 303 305 303 303 303 303 302 302 304 305 305 303 303 301 298 301 297 296 296 295 294 295 293 292 292 296 296 295 296 295 295 298 292 295 297 297 312 325 325 323 321 322 323 324 324 325 324 325 324 324
310 310 310 310 310 310 311 310 310 311 311 311 310 310 310 310 310 310 311 311 311 312 311 313 310 305 301 303 309 312 323 311 309 309 311 305 303 301 301 302 303 302 302 303 304 303 304 304 303 300 299 299 300 298 294 295 294 294 292 291 291 291 294 297 297 297 298 296 296 297 293 295 298 297 316 325 325 324 321 322 322 322 323 323 324 324 324 323
310 310 310 310 310 310 310 310 310 310 310 311 310 309 309 310 310 311 311 311 311 312 312 307 305 303 299 296 304 313 312 308 309 311 310 309 303 301 302 301 301 301 303 303 304 304 303 304 300 299 298 297 297 295 294 293 294 293 293 293 290 291 293 296 296 296 297 297 297 297 293 294 296 297 317 324 324 323 322 321 322 321 322 322 323 324 323 322
309 310 309 309 309 309 310 310 310 310 310 310 310 310 310 309 308 308 311 312 311 312 310 303 306 306 297 303 308 303 304 309 309 307 306 305 303 301 302 301 300 300 301 303 304 302 302 301 298 298 297 296 295 295 291 290 290 292 293 292 292 292 294 293 298 297 296 296 296 296 294 296 297 301 320 323 323 322 321 320 321 322 322 322 323 323 322 322
309 309 309 309 309 309 309 309 309 310 310 310 309 309 308 310 311 310 310 311 311 310 308 310 306 300 298 299 298 302 306 304 305 305 305 304 302 302 302 301 299 300 300 299 300 300 299 298 299 295 296 297 296 294 290 286 290 290 292 292 292 292 293 294 294 296 298 296 296 295 295 296 301 310 320 322 323 322 320 321 322 322 322 322 322 323 323 323
309 309 309 309 309 309 309 309 309 309 309 309 308 310 311 310 309 310 306 306 303 296 296 298 296 292 289 295 299 302 305 305 304 306 302 303 302 304 303 301 301 299 296 297 296 298 297 297 298 295 291 292 293 293 292 291 292 292 292 292 292 293 293 293 296 296 297 297 294 293 294 295 301 313 320 321 323 321 321 322 323 323 322 322 322 322 323 323
309 309 309 309 309 309 309 309 309 309 309 307 305 306 306 303 302 302 304 304 301 304 304 303 301 299 301 303 303 308 307 306 304 303 304 306 303 303 302 300 298 298 297 296 295 298 299 293 292 291 293 296 297 297 297 293 294 293 292 292 292 292 294 295 294 296 296 294 294 294 295 295 300 313 319 320 323 321 320 321 322 322 322 321 321 322 322 323
308 309 308 309 308 309 309 309 309 308 308 306 304 302 298 299 296 297 299 304 306 305 304 304 303 302 303 303 304 306 304 304 303 303 304 309 304 302 299 299 297 296 295 294 297 299 297 292 292 296 297 298 298 296 296 295 296 293 293 292 292 291 293 296 295 296 299 296 294 293 293 295 299 313 318 321 321 318 319 320 320 321 322 322 322 321 322 324
308 308 308 308 309 309 309 309 308 309 308 305 303 299 301 301 304 306 303 298 302 305 305 305 305 303 306 305 306 306 306 302 303 303 303 305 301 299 296 297 294 294 295 295 295 295 293 291 295 298 296 296 295 295 297 297 296 295 294 293 292 293 293 295 294 297 298 297 294 294 293 295 298 307 310 317 319 321 321 321 321 321 321 322 322 322 323 324
308 308 308 308 308 309 308 309 309 307 306 302 301 299 301 307 308 309 307 301 298 303 304 303 301 302 303 307 307 308 301 300 299 301 301 303 298 299 296 295 295 293 293 295 293 292 290 292 299 296 296 297 295 296 297 296 298 295 293 292 292 292 292 292 297 297 298 297 295 295 295 297 298 301 309 309 310 314 319 321 322 323 321 321 322 323 322 322
308 308 308 308 308 308 309 309 306 303 301 302 302 302 307 308 308 308 304 298 298 302 302 304 304 304 303 303 308 306 302 301 301 302 305 302 299 297 297 295 292 293 292 293 294 292 292 295 294 295 296 297 296 295 296 294 293 294 295 293 292 292 294 295 295 297 299 298 299 297 297 295 298 302 306 308 310 315 318 320 321 323 323 324 324 324 325 323
307 307 308 308 308 308 308 308 303 303 303 301 301 306 309 310 309 308 304 299 298 298 305 303 305 305 306 310 308 304 303 300 302 305 304 303 295 296 296 294 295 292 292 291 291 291 292 295 297 295 293 295 297 293 295 296 292 294 295 295 296 297 296 294 297 296 296 295 297 294 290 291 295 296 303 306 310 312 317 318 319 320 321 322 321 321 324 325
307 307 307 308 308 307 308 301 300 303 300 300 303 309 311 309 309 309 306 293 288 296 302 296 308 300 311 303 306 304 304 299 305 305 302 303 305 300 295 295 296 292 290 291 292 294 294 296 296 295 296 294 294 294 296 296 293 292 295 297 297 296 297 297 295 296 291 290 295 295 291 287 297 296 297 300 306 311 313 316 318 319 320 319 319 320 321 322
307 307 307 307 307 307 301 297 302 301 295 299 303 308 307 307 312 308 298 287 285 297 297 300 302 301 307 304 305 303 292 296 301 302 302 306 301 302 296 293 294 293 293 297 293 291 293 294 294 296 295 293 293 292 295 295 294 292 298 294 295 295 296 297 298 296 294 295 296 295 295 291 290 294 297 297 302 306 309 312 315 317 319 319 319 320 321 322
307 307 307 307 307 306 302 302 300 298 297 301 306 305 305 308 310 311 297 277 280 296 295 297 300 308 305 304 305 299 299 302 298 300 303 304 303 298 298 293 294 294 293 294 287 296 297 294 295 294 295 293 293 296 298 297 296 295 294 295 294 296 298 296 296 295 294 294 291 295 295 291 290 295 297 298 299 301 304 309 312 315 316 319 320 321 322 323
307 307 307 307 306 306 305 302 299 297 303 305 306 305 306 311 308 299 287 277 292 295 307 295 306 303 299 304 301 300 299 300 296 298 301 303 302 300 295 296 294 294 293 296 292 295 294 297 297 298 295 293 296 294 296 296 296 293 295 295 294 295 295 296 296 295 293 291 287 292 293 289 289 296 297 297 298 299 300 302 305 310 314 316 317 319 321 323
307 306 307 306 305 304 302 303 299 304 306 305 306 305 309 311 305 291 281 275 294 290 296 298 298 295 299 298 297 299 297 298 298 299 300 299 300 300 296 298 295 294 294 295 293 295 295 300 297 296 295 297 295 294 294 296 295 296 296 296 295 294 295 294 294 294 293 286 289 291 291 291 287 294 295 296 297 297 299 301 301 302 302 305 313 317 319 320
307 306 306 306 300 301 301 295 300 303 305 306 304 304 308 299 292 282 275 287 292 294 299 297 294 297 297 295 293 296 297 296 297 298 296 299 297 298 297 295 298 296 294 297 294 295 295 295 296 298 299 294 296 292 292 293 295 296 296 295 295 293 295 294 293 294 286 284 289 289 290 291 286 290 297 299 299 300 301 301 304 305 305 304 307 313 316 319
306 306 306 304 304 304 295 296 298 301 302 305 308 305 300 287 288 281 281 296 285 291 292 292 295 294 294 294 293 294 295 295 297 296 295 295 294 294 294 292 295 287 287 289 289 294 293 295 295 295 302 297 294 294 292 294 295 295 295 295 289 286 287 283 288 283 284 284 289 290 291 289 290 295 298 299 301 303 305 305 306 307 307 308 305 308 315 317
305 305 306 305 306 303 302 304 303 304 304 304 303 299 293 283 277 286 285 290 287 294 293 295 294 293 293 292 292 292 294 294 296 295 295 293 294 294 294 294 294 295 287 292 289 290 293 294 293 296 296 299 297 293 291 291 293 293 293 292 288 283 280 276 282 283 284 288 290 290 291 289 292 295 298 298 302 304 307 309 309 308 308 307 310 313 315 317
305 305 303 304 304 304 306 306 304 304 301 309 304 294 286 278 280 296 288 289 289 294 294 293 292 292 292 292 293 294 291 294 294 295 295 293 293 292 293 292 293 294 296 288 288 289 285 287 293 294 293 297 296 297 296 296 293 293 293 294 291 288 283 276 282 279 282 286 289 290 289 287 288 293 298 300 302 307 309 309 310 311 312 312 313 314 315 315
304 303 303 301 301 303 305 306 305 305 304 304 297 291 281 280 284 285 288 292 291 292 292 292 290 290 291 292 294 295 295 295 294 293 293 292 291 292 292 292 292 294 293 289 289 287 288 288 295 295 294 293 295 294 295 293 292 291 291 294 291 289 294 285 286 287 287 286 285 288 287 290 292 297 299 300 306 308 309 309 310 311 312 313 313 313 314 315
301 301 300 300 302 305 303 305 305 305 302 300 293 285 283 286 285 288 288 295 292 290 290 289 291 290 290 292 294 293 297 294 294 293 292 293 293 292 292 293 294 295 293 290 292 287 286 287 293 293 294 294 295 294 294 295 288 291 290 290 292 295 293 283 283 284 282 285 284 286 288 292 297 296 298 303 306 306 308 309 310 310 312 313 312 312 313 314
298 300 301 302 302 307 305 305 304 304 302 298 291 285 290 288 289 290 296 293 292 292 288 285 289 288 289 289 292 293 294 296 294 293 290 292 291 292 291 293 295 294 296 298 289 293 289 290 294 291 292 293 293 294 294 292 295 291 288 291 293 295 297 291 284 282 283 282 282 285 285 289 289 287 297 301 304 305 306 307 308 310 312 311 312 313 314 315
296 296 301 302 304 306 306 305 304 303 300 295 287 290 289 290 292 294 295 294 293 292 290 287 290 289 287 290 291 292 293 292 293 292 290 292 290 295 293 293 295 295 296 296 294 294 293 287 291 289 291 293 294 295 294 294 293 294 293 297 292 286 285 288 287 277 278 277 281 284 284 287 290 291 294 297 302 304 306 306 307 308 309 310 311 312 313 314
296 298 299 301 305 306 305 305 305 300 297 289 287 287 291 290 293 295 297 296 293 292 288 288 287 289 290 289 291 291 293 291 293 294 289 291 289 295 294 294 293 293 293 295 295 292 296 288 289 291 291 292 293 294 288 291 294 293 294 292 292 295 292 286 287 289 288 279 277 281 284 285 292 294 297 298 303 306 306 306 307 307 307 309 310 310 311 312
297 296 295 303 305 305 305 306 301 298 293 285 288 290 292 292 295 297 297 297 292 292 291 290 288 289 290 290 290 291 291 293 292 292 292 295 292 297 295 299 295 294 292 294 294 295 289 293 285 291 291 290 289 291 291 291 290 290 292 289 292 291 290 292 290 288 286 281 280 281 280 287 294 296 297 298 300 306 307 307 307 307 308 309 310 311 311 312
294 296 295 304 304 306 306 302 295 290 289 290 290 290 292 292 295 297 296 297 296 296 293 290 291 288 291 290 290 290 291 292 292 292 291 293 293 290 297 295 294 294 295 294 295 295 289 288 287 290 289 289 289 290 290 289 290 292 292 290 290 287 287 284 282 286 286 286 279 280 280 290 293 295 297 298 300 301 306 307 308 308 308 309 310 311 312 312
297 292 294 306 305 305 302 291 293 291 291 289 288 293 292 301 294 294 295 294 295 295 294 293 292 291 290 290 291 290 291 291 292 291 291 291 292 295 294 295 294 294 293 293 294 296 297 292 289 284 287 288 289 291 291 291 290 289 292 290 290 291 292 288 281 284 285 284 285 287 284 286 294 296 297 298 299 301 306 308 308 308 309 309 310 310 311 312
295 293 303 304 305 305 300 293 293 292 292 294 293 293 293 294 293 294 293 293 292 291 292 290 292 290 291 290 289 289 290 290 290 291 291 291 291 294 294 295 295 295 294 295 291 294 305 289 286 285 289 291 293 292 292 290 291 292 290 289 289 291 291 292 291 291 287 285 285 284 282 287 294 299 299 299 302 305 307 308 307 307 308 309 309 310 311 311
294 296 298 303 305 303 296 286 287 286 290 295 293 292 292 293 292 292 292 291 291 291 291 291 291 291 291 291 291 289 291 287 289 290 290 292 292 295 294 295 297 300 296 296 292 299 290 292 289 283 283 285 288 290 290 292 292 289 289 288 287 288 289 289 289 290 287 287 287 286 280 287 295 299 301 303 305 305 306 307 308 307 308 309 309 309 310 311
294 295 296 299 303 301 291 291 289 285 288 288 289 289 290 292 292 291 291 291 292 290 290 290 290 291 291 292 291 291 291 289 290 290 291 292 292 296 294 298 303 301 304 303 302 298 290 287 288 282 278 276 276 278 281 285 287 287 287 289 288 289 289 290 287 288 284 286 285 286 285 289 294 296 296 297 301 303 305 306 307 307 307 308 308 309 310 311
291 286 291 295 297 298 294 296 292 289 286 288 286 288 289 288 292 292 293 291 291 290 289 289 289 291 290 291 291 290 289 292 291 290 290 291 292 294 294 294 297 302 304 303 300 296 286 287 286 287 286 284 284 284 286 287 288 287 287 288 288 287 288 291 291 286 285 285 286 288 290 290 293 291 292 293 295 298 301 302 304 305 305 306 307 308 309 309
292 288 285 286 293 295 292 294 290 290 287 289 285 287 286 287 288 291 293 290 291 290 289 288 287 289 289 291 289 288 287 289 291 290 288 289 290 292 293 292 293 298 304 300 299 291 287 284 286 286 285 285 286 285 286 288 287 286 287 288 287 288 289 292 288 286 290 287 283 290 287 292 289 289 290 291 293 295 297 298 299 301 301 304 306 307 307 307
288 287 291 292 287 284 287 288 291 289 291 289 286 288 285 286 287 285 290 292 291 292 289 289 288 286 285 288 290 286 287 288 288 286 289 289 290 292 291 293 291 294 299 294 295 293 288 284 286 288 285 286 287 287 288 287 286 287 287 287 288 288 291 290 285 287 290 286 286 288 289 290 287 288 289 291 291 293 294 295 297 297 299 303 306 305 304 304
291 289 291 292 287 287 289 289 292 290 289 291 287 287 285 286 284 286 285 288 290 289 289 283 285 286 286 287 289 286 285 286 284 287 287 288 288 289 290 292 294 292 292 293 293 292 290 284 286 287 286 287 287 287 290 289 288 288 286 286 286 288 288 288 286 285 287 287 287 288 288 286 287 288 290 291 293 294 295 297 299 298 298 301 301 301 301 300
288 288 289 291 290 288 289 291 291 290 285 289 285 286 286 285 285 286 287 286 284 287 289 286 285 286 286 287 287 285 285 287 287 284 287 288 290 290 288 288 288 293 292 291 292 293 294 285 289 288 286 285 286 288 290 288 289 286 286 286 286 286 287 287 286 285 287 287 287 288 287 285 288 290 290 292 293 295 296 295 296 297 298 299 299 299 299 299
292 292 290 288 285 286 290 288 290 288 285 286 285 286 286 286 285 287 285 288 286 284 286 285 286 287 287 287 287 285 286 286 287 288 288 288 286 290 288 289 290 289 289 291 291 293 293 286 289 287 284 283 286 285 286 288 287 286 285 286 285 285 285 284 283 283 285 287 285 287 286 284 287 289 290 291 291 291 291 293 294 295 298 298 298 298 298 298
293 292 291 290 283 285 283 285 287 289 283 285 286 286 285 285 288 288 285 288 288 288 287 287 288 287 287 287 285 286 288 288 289 289 290 290 290 290 290 290 290 289 288 289 289 290 289 287 286 286 283 281 283 284 285 286 285 282 284 284 284 283 284 282 283 284 283 284 285 286 286 287 288 290 288 288 289 289 289 290 292 294 295 296 296 296 297 297
Wind_Speed
14 13 13 13 13 12 12 12 11 11 11 11 11 11 11 12 11 11 11 11 11 12 12 12 12 13 13 13 13 13 10 11 11 5 4 11 8 9 11 4 12 17 7 2 5 8 5 4 6 1 4 3 1 3 1 1 1 2 4 2 3 1 5 5 6 6 2 2 5 6 5 5 6 4 5 6 8 8 6 6 4 6 6 5 10 16 16 14
15 14 13 13 13 12 12 12 11 11 11 10 10 11 11 11 11 11 11 11 11 11 12 12 12 13 13 12 12 11 10 10 12 8 17 6 8 12 10 2 9 15 9 2 6 5 9 4 4 5 6 4 1 1 0 3 1 2 2 2 5 4 2 3 2 3 1 2 5 3 1 2 3 6 4 2 3 5 5 5 4 7 9 11 14 16 16 15
15 14 14 13 13 12 12 12 11 11 11 10 11 11 10 10 10 10 11 11 11 11 11 12 12 12 12 12 13 7 11 8 5 7 4 7 12 10 10 5 10 18 12 5 5 7 8 9 8 7 1 4 2 3 1 2 3 1 3 4 2 6 3 4 4 3 4 2 7 6 1 4 4 3 2 3 3 3 4 4 2 4 8 11 14 15 15 14
15 15 14 14 13 12 12 11 11 11 11 10 10 11 10 10 10 10 10 11 11 11 11 11 12 12 13 12 12 5 6 5 2 1 2 2 11 12 11 10 13 12 4 2 5 4 4 7 5 3 3 3 2 1 6 3 4 3 2 2 3 4 3 3 5 6 5 2 5 2 3 2 3 1 2 2 5 4 4 6 5 11 12 14 15 15 15 15
16 16 15 14 13 12 12 11 11 11 11 10 10 10 10 10 10 10 10 10 10 10 11 11 11 12 13 12 10 4 4 1 3 3 2 2 12 14 14 12 14 5 3 6 8 5 4 6 4 2 2 4 1 3 2 3 1 4 4 2 4 3 4 6 7 0 2 0 2 1 7 3 1 2 2 8 4 3 2 1 3 9 15 18 18 15 14 15
16 16 15 15 13 13 12 11 11 11 11 10 10 10 10 9 9 9 9 9 9 9 10 10 11 11 12 8 2 2 2 1 1 3 5 6 12 15 14 12 11 7 9 6 4 4 7 3 4 5 3 4 6 7 2 1 3 5 2 3 4 4 5 2 1 2 4 2 3 4 2 2 1 2 2 4 6 2 3 3 4 12 15 16 15 16 15 16
17 16 15 15 14 13 12 12 11 11 10 10 10 10 9 9 9 9 9 9 9 9 9 9 9 11 8 4 2 2 1 6 3 2 6 11 14 14 15 12 8 7 5 7 4 4 1 4 2 3 4 3 0 2 3 3 1 3 3 1 3 6 8 4 5 1 3 3 5 2 2 6 2 5 2 4 2 5 5 1 10 14 15 16 16 16 17 16
17 17 16 15 15 14 12 11 11 10 10 9 9 9 9 8 8 8 8 9 9 9 8 8 8 9 7 4 2 1 1 6 3 3 1 12 14 15 13 7 7 5 6 8 7 4 4 7 8 3 3 5 3 5 3 4 1 4 3 3 2 3 6 5 4 5 6 7 2 3 5 8 4 4 2 3 4 3 5 8 13 15 16 15 16 17 14 14
17 17 17 16 16 15 13 12 11 10 10 9 9 9 8 8 8 8 8 8 7 7 7 7 8 5 7 2 2 3 4 5 2 3 5 11 10 12 12 8 4 8 5 3 2 6 6 3 2 5 3 3 2 5 2 4 4 5 6 2 1 5 4 4 5 8 6 3 5 5 8 1 3 3 4 3 2 3 7 9 12 15 17 16 16 16 14 14
17 17 17 16 16 15 14 12 11 10 10 9 9 8 8 8 8 7 7 6 6 6 7 7 6 4 3 2 1 2 0 2 3 2 5 9 9 10 3 7 9 8 8 2 5 5 5 5 5 6 6 4 4 2 2 4 0 3 3 5 6 4 4 3 6 1 1 3 5 5 3 3 1 5 4 2 3 7 9 10 11 14 16 16 14 12 9 12
17 17 17 16 16 16 15 13 12 11 10 9 8 8 8 8 7 7 6 6 6 6 5 4 4 5 2 2 0 4 1 2 2 3 7 9 9 8 8 8 7 6 6 2 6 6 2 3 1 3 1 1 5 2 3 2 3 3 2 1 5 5 6 6 5 8 1 5 8 8 0 3 3 3 3 4 7 9 11 11 12 12 14 13 11 10 10 12
18 18 17 16 16 16 16 14 13 12 10 9 9 9 8 7 7 6 6 6 5 4 4 4 3 1 1 0 3 7 2 3 3 4 6 7 5 1 3 8 9 9 8 8 6 1 2 0 4 1 2 4 2 2 3 2 1 1 3 3 2 2 6 5 7 1 5 4 6 6 3 2 3 5 2 7 9 10 10 11 11 12 13 12 10 10 10 12
18 18 17 17 16 16 16 15 13 12 10 9 9 8 8 8 7 6 5 5 3 2 2 1 2 1 1 4 8 6 1 2 4 5 4 2 4 4 4 2 1 2 5 6 2 3 3 3 1 3 3 2 1 1 3 1 1 3 3 1 3 2 4 1 1 1 5 2 6 6 6 4 7 4 5 9 11 11 11 11 11 10 11 9 10 10 10 9
18 18 17 17 16 16 16 15 14 12 11 10 9 8 7 7 7 6 4 4 3 3 3 2 2 1 1 6 4 2 4 2 4 4 4 3 5 3 4 2 3 2 3 4 1 3 6 2 3 4 2 3 1 0 2 1 1 3 1 0 1 1 4 4 2 4 4 3 6 3 8 4 4 5 7 10 12 14 13 12 12 11 10 9 9 10 10 9
18 18 18 17 17 16 15 15 15 13 11 10 9 8 7 6 6 5 4 3 3 4 4 4 2 1 1 7 4 7 5 5 5 6 7 7 6 4 2 3 4 3 2 3 2 1 2 3 0 1 1 1 0 2 1 1 3 2 3 3 1 3 3 4 3 7 4 3 2 5 6 7 4 4 10 11 12 12 12 13 12 12 10 9 9 10 9 8
19 18 18 17 17 17 16 15 15 14 11 10 10 9 7 7 6 4 4 4 2 3 4 1 1 2 2 7 2 3 1 2 2 5 6 5 6 3 5 5 4 3 3 1 2 1 2 3 1 0 1 2 3 3 2 3 1 2 2 1 3 1 1 5 2 3 2 2 3 10 4 1 3 2 10 12 13 12 10 11 11 12 10 10 9 9 8 7
19 18 18 18 17 17 16 15 14 14 12 10 11 9 7 5 4 3 1 4 4 2 2 1 2 3 2 1 4 3 1 4 2 3 3 1 3 8 10 7 4 3 2 3 3 2 2 2 1 1 4 1 1 2 4 1 1 3 1 2 1 3 2 3 1 2 1 3 4 6 6 5 3 1 11 11 12 12 9 10 11 10 9 9 8 8 8 8
19 18 18 18 17 17 16 15 14 13 13 10 9 8 2 3 6 5 1 2 2 2 1 0 0 2 7 3 3 1 1 3 0 4 3 1 6 9 6 3 4 6 5 2 2 3 1 2 2 2 1 1 2 3 4 6 6 4 3 2 3 2 4 4 3 2 2 2 6 5 9 9 3 5 11 12 11 10 10 10 11 11 11 11 9 9 9 8
19 19 19 19 18 17 16 15 14 13 12 9 5 6 5 4 2 1 3 2 3 1 1 3 2 2 0 3 2 5 3 3 3 4 4 8 2 3 4 4 9 10 4 2 1 3 1 2 1 1 4 3 5 5 6 1 4 5 2 1 1 2 3 3 2 1 1 4 5 8 10 12 4 7 10 10 11 11 9 9 9 10 10 11 11 10 9 9
19 19 19 19 18 17 16 15 14 12 12 5 3 1 2 2 1 2 1 2 5 8 9 3 6 3 7 7 7 7 2 2 3 0 4 1 8 5 3 2 3 3 4 5 3 2 1 3 4 5 4 5 4 5 2 4 2 4 3 2 3 3 5 5 4 1 1 2 3 5 3 3 4 7 9 10 10 10 10 10 10 11 11 11 11 12 10 10
20 19 19 19 19 18 16 15 14 12 8 3 3 1 2 2 2 3 3 8 8 6 9 9 14 11 7 1 1 3 4 2 2 0 6 3 4 10 1 1 2 3 1 1 4 1 2 3 5 6 7 6 3 5 6 5 1 1 1 3 2 3 4 1 2 2 2 5 1 1 4 2 1 5 6 7 9 10 11 10 10 11 11 11 12 13 12 10
20 19 20 20 19 19 17 16 14 11 3 2 2 3 2 4 2 1 1 7 5 13 11 14 2 9 4 7 1 2 2 3 2 2 1 5 6 8 2 2 3 6 2 1 2 3 3 6 6 8 3 6 5 4 2 3 4 2 3 1 2 3 6 5 1 2 3 3 0 2 5 2 2 2 1 2 6 7 9 8 9 9 10 10 11 11 12 11
20 20 20 20 20 19 19 16 13 4 2 2 2 1 4 2 2 2 2 4 11 3 9 6 6 10 9 3 5 6 5 7 5 3 7 5 4 3 6 4 3 3 1 2 6 2 4 7 8 4 7 7 3 4 5 4 1 3 2 2 3 2 1 3 1 4 5 2 2 3 6 3 3 3 2 1 2 2 3 4 7 8 10 11 11 10 10 13
20 20 20 20 21 20 18 19 7 2 3 4 3 6 3 2 2 4 4 4 8 3 6 6 8 4 7 4 7 11 9 3 4 5 1 7 7 2 5 5 4 3 5 5 6 7 5 3 3 8 6 7 5 3 6 4 5 1 4 2 2 2 3 1 2 3 3 2 4 4 5 4 2 6 5 2 1 3 3 4 5 7 8 8 8 9 11 12
20 20 20 21 20 21 21 14 2 2 2 2 5 7 7 6 2 3 3 4 2 5 0 1 3 5 5 2 5 10 4 2 7 1 7 8 6 5 3 2 3 5 3 3 4 2 7 3 5 6 3 3 5 3 6 5 3 2 6 9 7 1 3 3 2 2 1 4 6 2 3 3 3 3 4 4 3 5 5 7 9 10 10 9 10 11 10 11
21 20 21 20 20 22 19 1 1 1 3 5 3 2 3 3 4 3 1 3 5 4 3 1 3 1 5 4 6 2 7 5 5 5 6 5 6 6 3 2 1 7 5 7 4 2 3 3 6 5 5 4 4 4 4 6 3 2 4 10 10 5 2 0 2 1 3 4 2 2 2 3 2 4 2 2 5 8 5 7 8 10 11 11 11 11 12 12
21 20 20 19 17 18 6 1 2 4 4 2 1 2 4 4 2 5 2 2 2 2 1 1 2 1 1 4 7 6 6 5 3 5 6 4 9 1 6 3 1 4 2 3 2 5 4 2 4 4 5 4 4 5 6 10 5 5 1 5 6 6 5 4 3 1 1 2 3 1 2 4 5 2 2 2 6 7 6 7 7 8 9 11 12 12 13 12
21 20 20 19 16 11 5 6 6 2 7 2 1 4 4 2 3 1 1 3 1 1 1 2 2 2 2 2 5 4 2 5 7 6 2 4 5 2 2 5 8 8 5 4 8 2 5 5 3 4 2 3 4 5 7 11 5 1 2 4 6 5 3 4 1 3 1 2 2 1 5 3 1 3 2 2 6 5 8 7 7 8 8 9 11 11 12 13
21 21 21 18 16 13 6 5 2 7 4 2 5 5 4 1 2 3 1 1 2 1 1 2 3 4 2 4 5 4 1 3 1 2 1 3 4 3 5 7 4 4 2 4 6 1 3 4 7 5 4 4 4 2 10 11 6 1 7 8 6 6 5 2 2 4 1 3 3 2 5 3 2 2 1 3 4 4 2 2 4 4 6 8 8 8 8 8
21 22 20 17 12 2 2 3 9 8 3 7 7 6 1 3 0 1 2 3 3 3 1 2 2 1 3 7 4 2 5 2 1 3 2 5 4 3 4 3 5 4 4 2 3 1 3 3 2 3 5 2 5 4 1 1 3 9 4 8 5 5 2 2 4 1 3 2 2 4 4 3 5 2 1 1 3 2 5 3 2 3 4 6 7 7 6 7
23 24 19 14 6 2 2 4 10 7 6 5 7 2 2 6 2 3 3 4 3 2 1 2 1 2 6 7 5 1 2 2 3 6 5 2 3 3 3 4 5 3 2 2 4 2 1 2 2 3 2 4 4 7 3 3 5 3 3 3 5 3 2 2 2 2 2 2 3 3 2 2 5 3 3 3 2 3 4 7 8 7 7 6 3 4 5 4
23 23 20 11 8 3 5 5 0 3 3 7 4 3 3 3 3 4 4 3 0 1 3 2 1 1 2 1 1 5 5 2 4 4 7 6 7 7 5 5 4 3 4 2 5 3 4 8 0 3 2 4 3 7 3 3 1 2 4 4 7 2 0 3 2 4 4 2 3 2 0 2 3 1 2 4 5 6 4 5 8 9 9 6 5 3 1 2
23 24 23 12 10 10 14 10 5 6 9 8 3 2 3 2 5 4 5 2 1 2 2 3 2 1 1 2 4 2 2 7 2 3 3 2 6 8 2 3 5 5 3 2 2 1 3 1 2 2 0 3 6 6 5 4 3 3 7 5 5 4 3 2 1 2 3 3 2 1 1 2 3 3 1 5 6 6 6 5 5 7 7 5 3 5 7 7
25 23 11 2 7 11 5 2 3 4 4 1 3 5 5 2 5 1 6 3 3 2 2 1 5 2 3 3 0 4 4 1 5 4 5 4 5 5 5 1 4 2 3 2 5 4 2 4 5 6 4 4 6 6 9 5 8 5 3 6 5 7 5 3 4 4 5 2 2 1 2 3 6 2 3 5 4 4 4 2 3 3 5 8 10 11 12 11
24 15 5 2 3 8 12 9 3 1 1 2 4 3 6 6 1 3 3 2 2 2 3 3 2 1 2 1 3 2 1 2 1 5 4 6 4 3 6 6 4 3 3 4 2 1 3 3 2 1 2 1 8 0 4 7 6 1 1 3 4 5 2 4 1 2 3 3 1 4 1 1 0 1 4 3 2 3 3 3 3 6 7 10 11 12 11 10
12 3 1 2 2 3 5 6 7 3 3 4 4 3 7 6 4 4 1 2 2 2 5 2 3 2 1 1 3 0 1 1 1 2 1 4 2 5 2 2 7 10 6 5 3 3 2 3 1 3 2 1 2 4 1 2 6 5 4 5 1 4 7 5 2 3 1 1 2 2 2 2 3 3 5 3 4 3 3 3 5 7 8 10 11 12 12 12
3 6 2 3 2 2 4 6 7 5 2 4 4 5 5 3 4 4 2 1 1 1 2 1 1 0 1 3 1 1 0 3 1 2 3 1 2 5 3 4 2 5 7 5 1 3 4 2 2 1 3 3 1 1 5 5 0 8 5 6 5 1 3 2 3 1 0 3 1 0 1 2 3 2 4 4 4 4 4 4 5 5 7 9 7 7 8 9
6 3 3 3 9 4 4 8 10 4 3 5 7 4 1 4 2 2 0 1 1 3 2 1 2 1 1 0 2 3 1 3 1 1 2 1 1 3 0 2 4 7 8 1 4 2 3 3 1 2 1 2 3 2 7 4 5 1 0 8 5 2 4 2 2 1 3 3 1 1 1 2 4 2 2 5 4 5 4 3 4 5 5 7 5 4 3 4
2 1 2 8 8 2 4 8 4 7 5 5 3 4 3 4 1 2 2 2 1 2 1 2 2 2 1 1 1 2 1 4 3 2 4 2 3 2 1 1 1 1 4 4 3 2 1 3 2 1 2 2 2 1 6 2 5 6 6 5 3 1 2 4 1 1 4 2 1 2 2 3 7 2 5 5 6 6 7 5 4 2 2 2 2 1 1 2
2 1 3 5 6 4 6 2 3 4 3 7 4 3 1 3 4 4 4 3 1 2 2 0 2 2 1 2 1 1 0 1 3 2 1 1 2 3 2 1 2 2 2 4 2 1 2 1 3 2 3 1 5 3 3 4 5 4 4 2 2 3 2 2 3 0 3 3 3 2 2 4 1 1 2 3 4 7 7 6 4 3 3 3 2 3 3 3
1 2 1 2 4 3 1 0 3 5 3 1 1 1 1 1 0 1 0 3 1 1 2 3 3 2 1 4 2 1 2 1 2 2 2 3 3 1 1 1 2 5 1 4 5 1 2 1 4 1 2 2 2 2 3 3 1 3 5 5 5 8 7 5 4 2 0 3 3 4 3 2 3 1 2 3 2 2 4 4 4 3 4 4 4 3 2 4
2 3 5 8 5 3 1 3 2 0 3 2 3 3 1 2 1 3 1 3 2 1 3 1 2 4 2 4 4 1 1 1 2 2 2 2 0 1 4 3 4 2 2 1 2 1 1 3 3 1 1 3 2 5 3 1 4 2 1 3 2 1 3 4 4 4 1 1 1 1 1 1 4 4 3 4 3 2 3 4 4 4 5 5 4 4 3 4
5 3 4 6 5 3 1 1 1 1 1 2 4 2 3 1 1 1 2 3 0 2 1 1 3 3 2 3 0 2 3 2 2 2 1 2 2 2 5 1 6 7 1 1 2 1 2 2 3 2 0 1 3 0 1 2 2 3 7 3 1 3 1 2 0 5 5 4 2 2 2 2 5 7 4 2 2 3 3 3 5 5 5 5 5 5 5 6
0 1 4 8 9 2 6 1 2 3 3 4 2 1 2 1 3 2 2 2 2 3 1 1 1 2 1 1 1 2 1 3 0 0 2 0 2 2 7 1 9 4 4 2 2 0 1 2 2 3 2 1 1 1 1 0 3 3 2 2 3 3 4 3 4 1 2 4 1 5 4 2 4 5 6 5 6 7 7 6 5 6 5 4 5 4 4 5
1 1 1 6 10 7 5 1 1 1 3 4 3 7 8 3 2 2 0 3 2 1 0 0 1 3 0 2 2 1 3 2 0 3 1 2 2 2 6 7 9 8 4 1 1 3 3 1 2 6 7 6 7 5 4 3 3 1 1 1 2 1 8 4 3 3 3 3 2 3 2 3 4 5 9 9 6 8 6 6 6 5 5 4 4 4 4 4
4 1 5 6 7 7 6 1 1 2 1 3 4 4 3 3 1 3 2 4 2 2 3 3 1 2 3 1 3 4 4 3 1 2 1 2 2 3 3 6 6 7 10 11 6 4 3 2 4 2 3 2 3 1 1 1 1 4 3 2 1 2 3 3 4 2 4 4 4 1 2 7 3 6 8 8 7 6 6 6 6 5 5 5 5 5 5 5
2 4 2 4 4 6 3 6 7 6 2 2 3 6 7 5 4 1 4 2 6 1 3 6 5 0 1 2 3 3 2 3 5 3 5 2 2 2 6 5 1 9 10 8 3 6 4 5 6 4 8 4 2 2 0 2 2 5 3 4 2 3 3 2 1 2 4 6 3 2 1 6 3 5 7 7 7 5 5 5 4 5 5 4 5 6 7 7
4 1 1 1 2 4 5 5 9 6 11 3 4 3 6 7 10 5 6 4 2 6 1 1 10 8 2 2 3 3 5 3 6 3 4 3 2 5 2 6 7 9 3 4 2 3 5 3 4 3 5 8 8 4 4 5 5 4 5 5 5 7 3 3 1 3 2 1 0 4 6 5 2 4 6 5 5 4 5 5 4 3 3 3 6 8 8 9
3 0 1 2 1 2 2 4 6 5 9 9 2 8 8 10 10 6 2 5 4 8 7 2 8 11 8 0 1 4 3 1 3 3 4 5 5 3 3 5 2 8 7 4 3 3 5 2 2 0 6 7 7 6 6 6 2 4 9 8 7 7 6 5 6 3 3 3 3 6 9 7 3 4 5 4 3 2 3 2 5 7 5 6 9 10 10 9
4 3 2 4 4 2 6 3 3 5 9 10 4 9 6 9 9 8 6 7 2 5 6 5 6 6 9 10 5 6 5 5 4 3 3 3 2 6 3 3 4 7 5 3 1 2 4 2 2 1 3 3 5 3 6 7 5 5 5 6 5 4 5 7 4 3 4 8 6 5 9 6 4 4 4 4 2 1 7 11 10 7 6 8 11 10 10 9
1 0 1 1 4 6 4 4 3 5 5 7 6 6 5 11 7 7 5 4 7 3 5 5 5 4 2 8 10 8 3 4 4 3 2 3 2 2 2 2 1 3 6 3 3 2 4 2 2 1 2 0 2 5 5 7 8 5 3 5 6 6 4 5 2 4 3 4 5 4 4 3 3 4 6 6 9 11 11 10 10 8 9 11 12 12 11 10
0 1 1 1 3 4 4 4 3 1 6 2 3 4 3 9 8 6 2 4 5 6 4 4 4 0 5 9 10 7 7 5 6 6 4 3 3 3 3 4 3 3 3 2 1 2 2 6 4 4 3 2 2 3 6 6 4 3 3 1 3 2 3 4 3 5 4 4 2 2 3 5 5 2 8 10 11 11 12 10 9 11 11 12 13 12 11 11
Wind_Direction
335 331 328 325 321 326 321 320 316 315 314 314 319 316 316 321 325 323 321 325 323 320 323 325 322 323 323 322 323 325 352 318 305 278 241 241 181 179 171 83 165 192 194 89 111 139 112 121 123 145 128 184 33 180 77 192 100 184 191 178 207 146 190 168 210 190 65 307 355 360 355 13 10 51 116 117 78 82 86 64 46 58 62 72 106 114 120 123
340 336 333 326 323 326 320 317 315 312 313 313 315 315 316 318 322 321 323 323 324 321 325 326 324 325 324 323 321 337 340 311 290 268 239 204 173 168 178 167 157 176 162 104 139 149 138 146 143 151 145 155 327 147 188 154 243 188 111 205 230 163 167 194 203 204 294 360 310 335 11 22 356 274 149 243 132 126 95 47 63 78 84 102 117 122 127 130
344 343 337 332 328 323 319 316 314 311 311 313 313 314 316 317 319 319 320 324 322 326 326 323 324 322 318 325 325 358 337 307 261 261 266 214 194 166 163 150 141 153 169 153 205 160 165 163 160 141 52 125 3 148 201 108 215 157 207 205 219 206 270 223 226 235 222 352 313 332 53 332 346 239 42 274 153 191 177 144 104 144 137 133 133 133 134 135
350 346 343 337 332 325 320 317 312 311 310 313 313 313 314 316 317 319 320 324 326 325 328 327 322 323 319 326 335 9 334 274 255 61 299 187 172 157 158 136 141 148 112 64 146 132 88 97 123 141 115 129 120 283 175 151 212 130 216 214 183 170 228 229 213 219 225 239 293 317 286 308 84 247 249 165 165 248 257 194 163 175 157 149 145 141 140 142
352 351 347 343 336 328 323 316 313 310 311 314 313 310 313 314 318 319 320 322 327 326 327 327 325 320 323 328 342 342 319 266 116 240 290 80 150 159 152 148 149 146 139 133 111 85 100 129 132 45 119 137 142 143 210 155 288 135 225 173 117 134 231 260 271 295 180 191 261 316 323 345 280 155 172 176 195 198 240 113 171 158 160 155 152 150 146 150
352 352 351 345 340 335 327 322 316 312 313 312 308 309 310 313 315 318 318 322 324 326 329 329 325 323 326 347 32 13 265 68 298 304 339 112 142 150 151 148 137 121 126 115 121 133 137 75 149 151 139 143 162 178 166 191 148 223 140 227 201 183 241 285 271 238 159 178 241 298 295 316 102 295 193 206 242 12 343 269 178 160 164 161 152 150 153 157
352 353 352 350 346 339 334 324 320 317 310 307 304 308 311 312 313 315 317 321 321 324 332 332 328 320 353 355 97 333 4 284 302 276 353 124 141 144 147 142 127 123 127 114 124 140 64 108 131 140 121 76 106 196 148 170 203 230 219 71 226 191 224 211 249 183 214 179 243 202 349 290 297 307 115 217 190 345 334 184 156 150 159 159 157 162 160 162
351 351 352 352 350 345 337 332 324 316 313 307 305 307 310 308 311 314 318 321 321 325 329 325 325 328 10 356 307 296 59 253 274 348 93 125 135 137 132 110 131 124 144 140 141 127 148 151 163 159 146 170 167 182 139 155 95 203 237 187 260 197 236 249 257 269 257 246 193 250 272 257 221 234 128 242 359 11 70 127 137 148 156 163 163 165 161 156
352 351 351 353 352 349 344 335 329 323 316 310 308 309 308 307 308 313 317 324 321 323 324 325 327 342 104 92 31 315 236 242 310 343 118 125 128 121 136 132 181 141 127 100 59 145 168 203 128 217 181 182 157 157 178 185 226 193 226 188 123 248 264 265 277 256 249 261 159 167 231 285 231 101 243 312 338 100 121 138 146 152 160 165 165 165 160 153
351 351 351 352 352 352 346 340 332 326 320 313 310 309 303 306 308 312 317 316 316 323 318 328 336 7 2 335 242 306 46 82 23 55 122 123 124 136 50 129 154 130 132 116 122 130 195 185 188 181 112 67 175 123 135 201 125 153 190 209 239 263 331 282 231 262 107 244 177 215 212 85 11 190 225 158 146 139 139 144 153 160 163 164 160 155 134 123
350 351 351 350 350 352 350 343 336 328 322 316 309 305 307 307 310 304 308 304 318 319 324 323 15 30 24 348 92 261 262 93 10 104 131 137 137 151 149 153 152 133 117 145 196 193 131 161 161 122 298 113 173 145 200 156 112 168 181 265 249 292 256 249 299 262 259 269 187 217 289 141 116 208 245 153 153 155 146 151 155 162 163 162 148 126 117 123
349 350 351 350 350 349 349 348 339 333 326 320 314 311 310 310 299 300 301 303 307 333 328 297 48 32 51 169 209 234 8 85 132 117 132 150 148 76 111 164 168 148 154 174 213 122 199 120 159 224 155 179 129 138 211 164 209 87 184 268 261 310 264 182 225 338 185 241 150 165 144 188 167 208 104 150 155 158 153 152 157 160 167 161 132 127 130 134
348 348 349 349 349 348 347 348 343 334 327 320 312 310 309 306 302 304 300 299 301 315 7 45 101 62 264 292 224 235 210 142 124 128 124 85 100 54 135 200 320 152 168 165 167 199 175 165 265 96 118 155 163 334 103 84 99 140 98 291 287 327 250 166 193 28 179 290 150 158 241 206 216 154 153 159 161 158 153 160 164 165 166 151 134 135 136 125
347 347 347 347 347 347 346 346 345 337 331 324 320 313 312 311 307 296 296 268 292 286 277 216 114 293 196 252 273 214 236 157 131 145 168 167 108 44 99 103 65 77 48 95 166 154 169 205 70 87 127 216 138 141 178 19 19 220 114 177 301 221 215 160 122 114 206 113 191 199 245 214 237 197 172 170 170 168 164 168 172 171 161 148 142 142 142 149
346 346 346 346 346 345 345 344 345 341 332 328 321 317 308 301 294 290 290 291 254 206 212 130 40 121 233 267 262 281 233 128 172 204 178 163 135 97 112 117 99 73 34 72 99 121 166 130 336 262 176 14 40 264 86 40 34 41 181 200 175 227 205 274 181 192 212 94 199 197 250 244 224 130 163 175 179 179 171 170 170 171 160 155 153 151 149 152
345 345 345 344 344 344 343 342 343 342 334 328 325 315 309 290 283 292 277 262 345 132 81 109 189 215 309 289 82 319 91 260 249 202 194 165 158 123 133 123 113 74 128 294 72 82 84 146 100 3 256 120 155 133 94 152 139 38 253 175 188 221 271 303 110 268 319 92 145 211 231 227 236 151 172 176 182 185 172 168 169 171 163 157 159 160 152 146
344 344 344 343 342 341 341 341 340 343 339 330 328 323 303 275 248 219 197 204 198 143 185 98 120 200 297 143 262 310 226 243 152 98 152 211 128 136 122 123 136 124 55 52 49 113 6 190 28 139 34 78 37 152 166 107 173 196 358 200 188 212 165 199 74 92 353 220 203 208 229 217 55 182 167 173 184 185 175 169 171 174 167 164 164 161 162 162
343 343 342 341 340 339 338 338 338 340 339 335 342 328 313 80 74 111 60 94 110 130 23 355 241 301 252 330 290 130 79 298 234 114 111 126 128 138 123 150 92 120 126 100 47 185 294 193 335 153 159 45 182 154 198 196 187 187 175 187 190 225 238 286 285 130 221 136 241 183 220 227 51 148 171 172 181 185 182 174 174 175 176 176 173 170 168 169
342 341 340 340 338 337 337 336 336 337 338 345 350 27 101 139 67 81 117 168 166 147 229 173 189 284 137 298 287 300 246 198 88 158 143 138 183 125 91 74 126 139 142 161 111 198 72 113 87 144 185 165 186 195 207 114 137 142 166 207 215 239 173 229 222 240 282 237 214 191 199 211 153 169 170 174 182 188 185 178 173 179 180 180 182 179 173 177
340 339 339 338 337 334 335 333 333 335 337 335 360 52 152 193 187 193 123 251 223 240 275 229 207 320 311 280 276 279 239 53 185 330 128 248 138 155 22 98 73 67 130 184 120 171 354 174 191 194 191 202 189 195 189 134 106 115 120 161 231 255 271 265 264 306 275 230 214 212 268 227 167 170 169 181 180 189 189 188 183 187 188 186 186 188 178 179
338 338 337 336 333 333 330 330 329 330 330 326 299 241 313 121 32 320 266 223 226 235 243 228 194 200 213 101 293 348 34 315 70 119 175 129 112 147 228 72 36 150 16 356 130 59 202 184 222 217 212 188 181 144 114 103 70 184 171 232 223 192 267 145 31 53 323 222 175 158 200 213 119 173 165 178 192 194 200 197 198 198 197 195 192 192 192 180
337 336 335 334 332 330 329 325 326 322 324 306 255 231 301 229 7 282 24 299 232 224 223 239 67 256 275 248 196 61 57 325 292 106 135 187 150 188 188 146 152 181 40 183 126 145 195 218 216 218 111 96 90 136 160 179 143 115 248 199 273 226 260 302 249 294 24 218 121 96 163 110 46 160 56 89 163 194 207 211 207 207 206 203 200 198 197 192
336 334 333 333 331 328 327 323 323 4 241 195 203 194 239 223 38 296 254 275 280 194 222 214 224 238 255 245 233 160 203 208 219 190 182 168 113 214 136 158 160 105 95 209 185 136 208 239 234 145 146 117 85 122 131 102 89 188 153 183 220 85 273 129 185 344 32 311 116 144 124 81 54 80 139 29 358 78 130 176 218 221 215 212 206 199 198 203
335 334 333 332 329 327 323 324 330 137 199 218 241 223 252 333 1 341 154 256 303 309 210 204 200 201 214 186 187 171 176 211 164 222 194 162 156 143 139 153 117 154 187 175 182 194 204 25 35 127 158 164 135 158 148 181 207 246 214 237 269 198 234 254 86 316 270 88 71 128 129 118 66 147 168 166 107 120 136 159 196 221 232 225 221 218 211 209
332 332 332 331 330 327 322 321 123 238 188 215 246 252 264 272 304 224 185 303 237 266 52 165 177 222 215 53 135 166 200 54 227 189 170 162 116 139 184 131 147 197 165 152 102 211 258 205 131 105 130 151 133 146 209 170 215 195 221 212 225 162 244 265 2 217 136 95 46 324 149 135 72 118 158 153 169 191 167 195 206 212 218 219 219 220 221 222
331 330 332 331 331 331 315 244 303 4 298 251 227 211 237 264 241 197 114 75 293 279 310 289 174 54 136 133 154 136 121 214 197 191 163 183 139 136 100 150 178 211 146 158 185 237 222 76 184 196 148 164 190 207 214 202 173 188 228 194 211 188 193 174 200 173 173 157 65 337 249 124 85 91 136 176 196 194 157 213 209 211 214 213 221 223 221 220
329 328 329 331 330 337 345 221 39 287 307 278 165 349 296 302 161 156 262 327 308 255 144 13 202 137 269 163 160 168 160 202 78 103 150 207 171 314 169 149 111 41 131 145 57 220 133 122 106 74 120 143 178 220 203 181 158 203 94 157 156 159 181 193 122 265 82 352 210 96 338 155 152 128 240 217 192 192 202 209 215 216 211 210 214 217 218 219
326 325 326 326 327 329 267 301 326 247 238 114 299 311 321 306 114 14 92 360 289 236 124 200 262 131 302 137 197 198 323 116 146 193 226 193 108 37 253 184 195 178 160 163 209 81 161 161 185 150 114 161 200 221 164 186 178 254 114 152 144 172 162 150 149 105 55 232 125 344 355 168 157 117 178 197 161 198 219 216 214 220 225 222 215 213 210 212
322 322 322 322 322 309 274 219 210 239 227 330 320 335 339 105 155 108 114 81 248 60 339 118 298 116 63 103 220 251 318 329 349 65 77 92 357 150 195 195 179 103 24 217 217 139 264 196 202 170 160 230 220 222 167 173 183 83 124 85 90 93 78 60 124 123 156 192 181 187 350 201 190 349 125 161 199 160 173 248 260 252 249 246 241 230 218 207
318 321 320 320 319 267 183 216 232 236 333 326 320 327 338 109 115 246 29 253 305 93 321 107 229 229 109 146 250 246 262 360 37 104 90 161 158 44 29 101 139 141 189 32 281 201 351 342 112 180 220 235 109 50 111 84 19 134 158 107 94 51 50 48 58 58 136 216 159 347 350 304 190 193 306 325 66 342 315 260 204 294 299 268 254 245 225 216
318 317 316 314 282 262 176 259 250 260 251 295 286 264 114 44 158 92 197 236 340 323 261 21 107 108 138 154 205 279 165 333 88 142 134 142 128 53 150 91 60 84 57 341 252 329 313 55 219 221 79 107 118 91 37 46 107 169 130 144 120 82 2 82 28 5 196 208 94 356 324 315 214 191 246 241 324 337 305 297 309 310 298 293 302 250 234 216
316 315 308 296 242 191 209 230 42 72 17 313 346 50 141 195 9 189 213 313 194 330 52 334 324 81 262 326 298 176 191 120 164 169 155 176 162 179 191 176 153 110 224 184 231 59 243 228 230 316 219 172 136 102 86 86 313 131 119 145 177 153 61 196 206 202 209 213 64 347 293 187 224 360 337 336 339 333 323 302 299 296 293 295 303 293 184 106
318 315 305 279 240 221 238 259 320 326 332 334 40 55 134 132 217 208 259 342 205 7 124 204 289 296 214 80 227 146 48 199 191 198 110 46 164 195 41 210 181 172 216 188 201 20 244 317 311 272 85 215 175 173 131 168 169 165 174 155 162 165 150 209 122 3 334 268 2 303 353 303 14 289 274 300 334 335 328 322 301 296 297 328 33 94 89 86
318 316 304 223 218 220 232 204 252 311 313 53 148 76 56 135 234 204 232 236 272 331 292 337 321 11 146 214 18 158 173 166 170 180 179 150 179 189 208 107 158 154 79 125 200 199 210 202 215 158 206 140 194 193 176 170 170 192 22 183 195 159 175 187 190 199 216 178 89 47 188 188 176 123 333 323 338 343 5 359 31 72 83 90 90 92 92 90
318 303 268 318 258 240 232 230 228 108 200 137 85 139 175 219 303 180 200 257 255 313 296 27 259 2 244 254 327 263 264 127 88 131 167 148 190 190 175 199 229 99 87 175 245 88 239 268 281 287 17 101 191 304 88 99 85 61 213 46 137 207 141 226 93 251 162 151 171 171 251 7 308 44 303 322 338 45 32 58 99 94 106 106 99 96 96 96
322 331 325 231 231 255 199 204 195 174 191 122 141 176 206 183 205 183 108 185 64 358 302 347 77 200 285 307 341 349 62 195 81 160 136 203 173 189 173 197 183 190 153 198 142 184 44 224 339 331 148 318 273 142 167 204 206 161 162 194 168 33 106 98 111 57 23 9 204 43 263 202 246 219 181 161 152 117 94 94 104 109 114 111 110 112 110 108
346 327 122 308 249 239 181 163 163 163 158 164 162 217 194 257 211 176 299 91 105 83 62 271 300 230 235 202 217 302 222 72 100 186 186 153 231 203 193 231 192 190 219 143 207 258 184 212 332 144 152 44 352 238 82 32 61 108 213 169 121 138 42 144 182 75 61 209 175 157 170 170 172 178 148 172 155 124 106 85 91 99 115 111 111 117 126 134
326 328 257 332 338 348 148 157 149 152 103 162 207 210 115 214 174 206 327 70 54 28 91 158 304 5 296 3 207 206 355 209 118 40 110 179 199 137 193 193 196 198 205 287 215 189 192 239 149 316 149 349 357 183 85 69 352 225 241 136 179 183 190 36 108 176 158 210 178 159 339 273 227 204 141 196 178 154 141 121 124 120 107 107 98 92 83 89
271 305 51 348 343 89 142 160 174 139 144 180 204 210 210 239 36 231 208 102 165 117 332 241 243 3 77 213 272 304 274 212 103 219 160 190 203 164 25 126 13 333 342 188 191 123 347 200 260 239 156 357 334 171 193 131 58 55 123 119 359 266 132 161 216 101 201 193 101 172 194 216 199 226 209 172 178 169 157 165 167 133 123 91 120 120 134 109
18 52 36 360 19 79 122 152 117 92 120 199 166 216 74 202 231 239 240 206 226 178 251 289 174 298 274 240 184 304 118 119 162 193 206 263 159 66 11 334 352 327 29 244 162 216 141 323 221 78 285 204 184 356 225 164 153 120 151 151 110 39 297 42 61 72 217 163 198 153 187 232 199 219 164 175 188 186 176 168 159 172 148 136 122 150 162 145
283 93 75 41 52 132 174 302 127 169 169 31 6 338 313 326 321 265 295 206 219 285 218 175 159 218 218 348 273 191 304 94 153 181 202 162 202 176 315 53 48 6 325 92 153 207 109 184 199 344 158 202 15 351 268 229 254 180 173 179 156 141 140 173 187 109 251 183 184 173 202 141 81 31 338 310 315 214 177 163 167 144 129 131 130 125 111 104
36 44 347 2 1 177 319 104 33 359 101 170 181 179 227 171 324 285 13 28 230 282 43 219 232 241 168 221 245 277 249 264 159 167 250 187 303 93 155 150 112 67 347 273 217 166 239 127 93 97 56 65 75 45 345 300 121 111 265 133 162 21 119 175 191 175 75 62 50 19 161 137 62 358 311 282 293 220 153 166 135 114 118 115 102 101 106 113
32 58 274 317 354 203 15 57 285 56 313 290 325 257 299 341 239 318 76 8 101 37 349 203 217 198 247 245 200 217 197 225 190 210 91 92 84 349 304 224 100 45 148 8 52 195 140 63 93 47 196 267 253 193 191 356 226 99 55 43 213 168 174 175 32 160 156 132 177 133 197 101 58 7 5 8 39 82 84 97 110 106 113 108 112 118 118 109
125 324 325 358 349 129 71 58 342 334 311 313 41 340 14 98 17 6 95 17 47 353 211 290 57 91 314 20 172 224 144 201 175 60 125 119 97 359 354 293 103 74 357 295 41 189 93 258 108 114 115 126 138 139 272 206 84 61 70 28 343 84 96 104 106 8 158 195 241 174 200 158 68 19 50 72 95 88 91 87 94 105 99 103 110 104 90 86
220 215 280 301 345 37 73 258 293 269 306 331 358 32 354 10 29 316 158 69 24 68 162 259 17 311 5 11 77 53 50 339 359 20 38 30 72 1 20 349 114 119 164 233 295 351 83 49 124 176 170 172 180 191 179 161 123 105 66 30 8 169 131 154 154 166 209 141 176 197 152 80 95 47 47 35 45 85 75 84 78 65 72 81 79 72 70 72
22 44 331 336 13 23 71 346 71 285 282 352 48 8 357 339 333 355 76 73 11 72 42 315 336 357 42 111 63 20 17 27 315 117 49 65 4 46 4 336 320 119 112 88 83 97 114 105 51 340 230 160 60 136 326 299 170 124 112 69 57 3 354 83 84 153 209 147 191 159 18 136 129 24 17 17 19 34 58 54 64 76 64 69 65 66 66 59
138 64 335 349 320 41 27 23 21 4 336 264 70 353 2 348 285 309 35 104 30 39 45 38 9 224 360 71 129 90 17 326 14 83 27 341 338 311 306 306 335 18 109 88 34 83 62 40 3 57 41 27 40 43 291 351 87 38 38 15 358 342 319 42 141 157 131 127 217 124 224 153 93 8 11 4 7 18 32 34 51 58 52 51 69 77 75 68
62 277 203 284 18 344 349 19 2 25 13 15 60 350 13 13 35 28 334 37 168 34 335 24 28 34 284 233 113 88 355 40 36 14 327 27 317 352 20 26 53 358 23 83 8 89 121 113 284 51 49 48 35 358 72 70 41 63 52 16 4 331 321 85 57 78 201 207 212 136 154 119 49 4 357 7 359 357 2 21 17 17 22 72 96 83 73 64
88 58 188 304 108 360 338 283 333 17 37 9 106 22 24 20 39 19 360 318 24 15 7 94 8 4 9 277 143 104 3 101 34 19 40 345 35 340 44 338 4 20 22 77 40 123 98 53 185 181 102 63 30 24 27 70 109 65 36 27 15 16 31 62 89 45 30 56 57 115 94 83 21 349 358 358 3 36 51 44 60 56 49 79 81 74 67 61
25 351 11 5 89 64 352 349 5 17 53 359 42 6 18 8 26 6 21 18 20 3 355 71 4 5 22 47 49 80 37 37 59 52 6 359 34 27 70 67 316 328 22 51 94 267 119 197 146 261 82 24 9 20 54 43 50 41 39 37 32 23 43 33 64 55 97 85 76 87 91 80 41 12 29 34 354 50 64 53 52 53 58 74 76 70 64 61
320 86 313 344 45 357 337 10 9 32 41 2 35 356 13 17 9 340 71 43 57 20 354 335 315 320 37 48 61 76 23 340 289 322 326 350 27 3 10 151 3 304 348 27 29 350 72 146 90 63 107 197 5 48 49 53 55 54 358 12 15 21 13 6 23 347 323 130 139 130 94 93 77 70 73 59 61 55 54 51 51 47 56 68 72 69 65 62
222 186 52 159 75 349 16 302 2 33 44 356 348 350 2 351 356 356 138 72 72 60 6 322 310 254 31 36 27 356 318 271 264 269 285 280 273 287 251 277 306 306 350 43 299 58 114 130 155 142 144 228 40 79 92 107 59 343 238 82 69 33 95 116 60 25 16 340 134 178 108 97 125 133 82 59 59 58 51 38 51 57 57 64 67 67 65 63